Location: Chuathbaluk
(61.5726°N, 159.2454°W)
Time: 04:37:17
(UTC+00:00)

Transit 2A - Pass Details

Date: 28 November 2020
Orbit: 599 x 960 km, 66.7° (Epoch: 26 January)

Event Time Altitude Azimuth Distance (km) Brightness Sun altitude
Rises 07:45:29 0° 265° (W) 3,571 10.0 -41.4°
Reaches altitude 10° 07:48:10 10° 270° (W) 2,590 9.2 -41.6°
Enters shadow 07:49:44 18° 275° (W) 2,035 8.6 -41.8°
Maximum altitude 07:54:04 55° 348° (NNW) 1,023 - -42.2°
Drops below altitude 10° 07:59:27 10° 66° (ENE) 2,364 - -42.7°
Sets 08:01:49 0° 71° (ENE) 3,236 - -42.9°
